Location: Tamazert
(32.6352°N, 5.2072°W)
Time: 08:50:24
(UTC+00:00)

Tiros 1 despin weight - Pass Details

Date: 09 October 2022
Orbit: 590 x 637 km, 48.2° (Epoch: 28 November)

Event Time Altitude Azimuth Distance (km) Brightness Sun altitude
Rises 20:06:12 0° 309° (NW) 2,881 ? -28.3°
Reaches altitude 10° 20:08:29 10° 310° (NW) 1,982 ? -28.7°
Enters shadow 20:11:25 40° 312° (NW) 927 ? -29.3°
Maximum altitude 20:13:04 87° 39° (NE) 629 - -29.7°
Drops below altitude 10° 20:17:41 10° 129° (SE) 2,001 - -30.6°
Sets 20:20:00 0° 130° (SE) 2,911 - -31.1°
